Location: Huntsville
(41.2590°N, 111.7678°W)
Time: 15:24:55
(UTC+00:00)

Courier 1B Rocket - Pass Details

Date: 16 June 2021
Orbit: 920 x 1202 km, 28.2° (Epoch: 22 July)

Event Time Altitude Azimuth Distance (km) Brightness Sun altitude
Rises 03:48:10 0° 227° (SW) 3,670 8.1 -7.8°
Reaches altitude 10° 03:51:38 10° 210° (SSW) 2,680 7.2 -8.3°
Maximum altitude 03:56:01 19° 167° (SSE) 2,046 6.2 -8.9°
Enters shadow 03:59:52 11° 126° (SE) 2,509 6.5 -9.4°
Drops below altitude 10° 04:00:18 10° 123° (ESE) 2,612 - -9.5°
Sets 04:03:37 0° 106° (ESE) 3,547 - -9.9°
